Location: Sobotiste
(48.7170°N, 17.4000°E)
Time: 10:13:49
(UTC+02:00)

CAS-6 - Pass Details

Date: 17 March 2026
Orbit: 601 x 618 km, 97.8° (Epoch: 18 April)

Event Time Altitude Azimuth Distance (km) Brightness Sun altitude
Exits shadow 21:14:07 19° 4° (N) 1,438 ? -30.7°
Drops below altitude 10° 21:15:28 10° 357° (N) 1,959 ? -30.9°
Sets 21:17:42 0° 352° (N) 2,869 ? -31.2°
